TimeEDT,TemperatureF,Dew PointF,Humidity,Sea Level PressureIn,VisibilityMPH,Wind Direction,Wind SpeedMPH,Gust SpeedMPH,PrecipitationIn,Events,Conditions,WindDirDegrees,DateUTC
12:53 AM,72.0,62.1,71,29.90,10.0,NNE,16.1,24.2,N/A,,Clear,20,2013-07-25 04:53:00
1:53 AM,71.1,61.0,70,29.91,10.0,NNE,16.1,25.3,N/A,,Overcast,20,2013-07-25 05:53:00
2:53 AM,68.0,59.0,73,29.91,10.0,NNE,19.6,31.1,N/A,,Clear,20,2013-07-25 06:53:00
3:53 AM,66.9,57.9,73,29.93,10.0,NNE,17.3,24.2,N/A,,Partly Cloudy,30,2013-07-25 07:53:00
4:27 AM,66.2,59.0,78,29.93,10.0,NNE,19.6,25.3,N/A,,Mostly Cloudy,20,2013-07-25 08:27:00
4:41 AM,66.2,57.2,73,29.94,10.0,NNE,16.1,25.3,N/A,,Scattered Clouds,30,2013-07-25 08:41:00
4:53 AM,66.0,57.9,75,29.94,10.0,NNE,11.5,-,N/A,,Scattered Clouds,30,2013-07-25 08:53:00
5:30 AM,66.2,59.0,78,29.94,10.0,NNE,17.3,24.2,N/A,,Mostly Cloudy,30,2013-07-25 09:30:00
5:53 AM,66.9,59.0,76,29.95,10.0,NE,16.1,28.8,N/A,,Overcast,40,2013-07-25 09:53:00
6:53 AM,66.9,57.0,70,29.97,10.0,NE,13.8,-,N/A,,Overcast,40,2013-07-25 10:53:00
7:53 AM,66.9,57.9,73,29.99,10.0,NNE,17.3,-,N/A,,Overcast,30,2013-07-25 11:53:00
8:53 AM,66.9,59.0,76,30.01,10.0,NE,11.5,-,N/A,,Overcast,50,2013-07-25 12:53:00
9:53 AM,66.9,59.0,76,30.01,10.0,NE,15.0,20.7,N/A,,Overcast,50,2013-07-25 13:53:00
10:53 AM,68.0,60.1,76,30.02,10.0,NE,13.8,20.7,N/A,,Overcast,40,2013-07-25 14:53:00
11:53 AM,68.0,61.0,78,30.02,10.0,NNE,12.7,20.7,N/A,,Overcast,30,2013-07-25 15:53:00
12:29 PM,66.2,60.8,83,30.03,10.0,NE,11.5,-,N/A,,Overcast,40,2013-07-25 16:29:00
12:53 PM,66.9,62.1,84,30.03,10.0,NE,12.7,18.4,0.00,Rain,Light Rain,40,2013-07-25 16:53:00
1:53 PM,66.9,61.0,81,30.03,10.0,NNE,15.0,20.7,0.00,,Overcast,20,2013-07-25 17:53:00
2:53 PM,66.0,61.0,84,30.02,10.0,NNE,11.5,19.6,N/A,,Overcast,30,2013-07-25 18:53:00
3:53 PM,66.0,61.0,84,30.01,10.0,NNE,15.0,23.0,N/A,,Overcast,30,2013-07-25 19:53:00
4:53 PM,66.0,61.0,84,30.02,10.0,NNE,13.8,-,N/A,,Overcast,30,2013-07-25 20:53:00
5:40 PM,66.2,60.8,83,30.02,10.0,NNE,12.7,20.7,N/A,,Overcast,30,2013-07-25 21:40:00
5:53 PM,64.9,60.1,84,30.02,10.0,NNE,13.8,23.0,N/A,,Overcast,30,2013-07-25 21:53:00
6:53 PM,64.0,61.0,90,30.03,10.0,NNE,15.0,21.9,0.00,Rain,Light Rain,30,2013-07-25 22:53:00
7:53 PM,64.0,61.0,90,30.02,10.0,NNE,15.0,21.9,0.00,Rain,Light Rain,30,2013-07-25 23:53:00
8:53 PM,63.0,61.0,93,30.01,10.0,NNE,15.0,24.2,0.02,Rain,Light Rain,30,2013-07-26 00:53:00
9:00 PM,62.6,60.8,94,30.01,10.0,NNE,16.1,24.2,0.00,Rain,Light Rain,30,2013-07-26 01:00:00
9:53 PM,64.0,61.0,90,30.01,10.0,NNE,12.7,-,0.01,Rain,Light Rain,30,2013-07-26 01:53:00
10:53 PM,64.9,62.1,90,30.00,10.0,NNE,15.0,21.9,0.00,Rain,Light Rain,30,2013-07-26 02:53:00
11:53 PM,64.9,63.0,93,29.99,7.0,NNE,13.8,21.9,0.08,Rain,Light Rain,30,2013-07-26 03:53:00